Weather in Novorossiyskoye

Russia / Novosibirsk Oblast     54°20′42″N   78°17′05″E
temp.,
°C
wind,
m/s
gust,
m/s
humid.,
%
clouds,
%
prec.,
mm/h
press.,
hPa
HPBL,
m
29 may, sun
sun2901:00+16nw3751100 0.0 1013149
04:00+16nw3749100 0.0 1013154
07:00+15wnw61256100 0.0 1014454
10:00+15w4763100 0.0 1015209
13:00+16sw466135 0.0 1015311
16:00+22w584023 0.1 10132086
19:00+23w69361 0.1 10132553
22:00+18wsw45470 0.0 101461
30 may, mon
mon3001:00+17sw465199 0.0 101496
04:00+19wsw71443100 0.0 1012545
07:00+17w511700 0.0 1014636
10:00+20w811500 0.0 10131620
13:00+22wnw912345 0.0 10131997
16:00+23wnw912300 0.0 10132234
19:00+23nw7103588 0.0 10132219
22:00+16nw335580 0.0 101330
31 may, tue
tue3101:00+14w226130 0.0 101312
04:00+15ssw2354100 0.0 101258
07:00+16s2258100 0.0 101049
10:00+17ssw3554100 0.1 1008343
13:00+21w6953100 0.3 10061511
16:00+20w8115793 1.3 10041013
19:00+21w694086 1.3 10032603
22:00+16w7124843 0.0 1004709
1 june, wed
wed101:00+11wsw613695 0.0 1003749
04:00+12wsw81371100 0.1 10011309
07:00+11w81184100 0.2 10011002
10:00+10nw91581100 0.2 10041405
13:00+16nw8115053 0.7 10041759
16:00+15nw51042100 0.1 10051786
19:00+14nw7114597 0.1 10071664
22:00+11w345991 0.0 100770
2 june, thu
thu201:00+8wsw497964 0.6 1006189
04:00+8wsw51082100 0.2 1005342
07:00+7wnw71289100 3.9 10051036
10:00+7wnw91388100 2.9 10061163
13:00+6nw91190100 7.0 10091051
16:00+7nw9128893 1.0 1011810
19:00+8nw81282100 1.0 1013949
22:00+8nw8137291 0.0 1015639